This is the latest recevied weather packets stored in our database for station/object KN4MGS. If no packets are shown the sender has not sent any weather packets the latest 10 day(s).
| Time | Temp. | Humidity | Pressure | Rain* | Wind** | Luminosity | Snow |
|---|---|---|---|---|---|---|---|
| 1777762088 | 18.89° C | 47% | 1015.7 hPa | 0 mm | - | 119 W/m² | - |
| 1777761784 | 18.89° C | 47% | 1015.9 hPa | 0 mm | - | 143 W/m² | - |
| 1777761482 | 18.33° C | 44% | 1015.6 hPa | 0 mm | - | 171 W/m² | - |
| 1777761180 | 18.89° C | 45% | 1015.4 hPa | 0 mm | - | 165 W/m² | - |
| 1777760877 | 19.44° C | 45% | 1015.7 hPa | 0 mm | - | 186 W/m² | - |
| 1777760574 | 18.89° C | 45% | 1015.5 hPa | 0 mm | - | 223 W/m² | - |
| 1777760270 | 18.33° C | 44% | 1015.5 hPa | 0 mm | - | 232 W/m² | - |
| 1777759966 | 20° C | 41% | 1015.8 hPa | 0 mm | - | 248 W/m² | - |
| 1777759663 | 19.44° C | 43% | 1015.5 hPa | 0 mm | - | 279 W/m² | - |
| 1777759359 | 18.89° C | 43% | 1015.6 hPa | 0 mm | - | 291 W/m² | - |
| 1777759056 | 19.44° C | 45% | 1015.3 hPa | 0 mm | - | 337 W/m² | - |
| 1777758753 | 17.78° C | 44% | 1015.4 hPa | 0 mm | - | 362 W/m² | - |
| 1777758451 | 17.78° C | 46% | 1015.2 hPa | 0 mm | - | 346 W/m² | - |
| 1777758147 | 17.78° C | 46% | 1015.2 hPa | 0 mm | - | 173 W/m² | - |
| 1777757845 | 18.89° C | 46% | 1015.3 hPa | 0 mm | - | 377 W/m² | - |
| 1777757542 | 18.33° C | 45% | 1015.2 hPa | 0 mm | - | 388 W/m² | - |
| 1777757241 | 18.33° C | 45% | 1015 hPa | 0 mm | - | 431 W/m² | - |
| 1777756939 | 17.78° C | 44% | 1015.4 hPa | 0 mm | - | 494 W/m² | - |
| 1777756634 | 18.33° C | 44% | 1015.4 hPa | 0 mm | - | 437 W/m² | - |
| 1777756331 | 17.78° C | 45% | 1015.4 hPa | 0 mm | - | 483 W/m² | - |
| 1777756028 | 17.78° C | 46% | 1015.3 hPa | 0 mm | - | 402 W/m² | - |
| 1777755725 | 17.78° C | 43% | 1015.3 hPa | 0 mm | - | 459 W/m² | - |
| 1777755423 | 18.89° C | 44% | 1015.6 hPa | 0 mm | - | 464 W/m² | - |
| 1777755119 | 18.33° C | 42% | 1015.5 hPa | 0 mm | - | 469 W/m² | - |
| 1777754816 | 18.89° C | 42% | 1015.2 hPa | 0 mm | - | 492 W/m² | - |
* Rain latest hour (hover to see other rain measurements)
** Current wind speed in m/s (hover to see current wind gust speed)